Simultaneous Nadir Overpasses (SNOs) Predictions

Prediction of SNOs between AQUA and NOAA-19 Satellite Orbit:

Table of predicted SNOs for the next 14.0 days since TLE Epoch: 3/12/2016
Index Date (AQUA) Time (AQUA) Lat,Lon (AQUA) SZA (AQUA ) Date (NOAA-19) Time (NOAA-19) Lat,Lon (NOAA-19) SZA (NOAA-19 ) Distance(km) Time Diff (sec)
1 03/14/2016 02:53:48 -80.75, -81.40 94.70 03/14/2016 02:53:27 -80.74, -81.26 94.72 2.87 21
2 03/16/2016 08:27:33 80.73, 15.41 84.36 03/16/2016 08:27:38 80.74, 15.26 84.39 3.03 5
3 03/18/2016 13:11:53 80.77, -56.11 83.56 03/18/2016 13:10:46 80.77, -56.10 83.59 0.33 67
4 03/18/2016 14:01:18 -80.73, 112.02 96.54 03/18/2016 14:01:42 -80.73, 112.10 96.56 1.49 24
5 03/20/2016 18:45:38 -80.77, 40.43 97.34 03/20/2016 18:44:51 -80.76, 40.55 97.33 2.38 47
6 03/20/2016 19:35:03 80.73,-151.41 82.57 03/20/2016 19:35:52 80.74,-151.52 82.56 2.26 49
7 03/23/2016 00:19:22 80.75, 137.22 81.74 03/23/2016 00:18:59 80.75, 137.38 81.73 2.83 23
8 03/23/2016 01:08:48 -80.74, -54.95 98.31 03/23/2016 01:09:58 -80.74, -55.08 98.33 2.34 70




NCC Satellite Simultaneous Nadir Overpasses (SNOs) Prediction Service
